Starlink 35033

operational
NORAD ID: 65468 Int'l Des: 2025-195 Owner: SPXS Country: US Constellation: starlink
LEOCIRCULAR

About Starlink 35033

Description loading...

Live Position

Loading 3D Globe...

Upcoming Passes

Altitude History

Altitude vs Time

uPlot chart will show altitude changes over time

Two-Line Element Set

1 65468U 25195L 25293.86959737 .00077277 00000-0 19217-2 0 9998
2 65468 53.1594 189.2639 0000793 52.7670 307.3407 15.39631149 8567
Epoch: Oct 20, 2025 • Age: 16 hours

Current Status

Altitude 451.2 km
Velocity 7.65 km/s
Sub-Earth Point 45.63°N, 14.72°E
Launch Date Sep 3, 2025
Age 0.1 years
Type internet

Technical Details

Classification Payload
Mass 575.00 kg
Dry Mass 530.00 kg
Total Mass 575.00 kg
Length 0.30 m
Diameter 4.10 m
Span 29.00 m
Shape Box + pan
Manufacturer SPXS
Bus Type Starlink V2MO
Phase Status In Orbit
Owner/State SPXS/US

Large Constellations

Loading constellations...